Regional Weather Roundup
Issued by NWS Northern Indiana

Home | Current Version | Previous Version | Text Only | Print | Product List | Glossary Off
Versions: 1 2 3 4 5 6 7 8 9 10 11 12 13 14 15 16 17 18 19 20 21 22 23 24 25 26 27 28 29 30 31 32 33 34 35 36 37 38 39 40 41 42 43 44 45 46 47 48 49 50

000
ASUS43 KIWX 221310
RWRIWX

KIWX WEATHER ROUNDUP
NATIONAL WEATHER SERVICE NORTHERN INDIANA
900 AM EDT SAT JUL 22 2017

NOTE: "FAIR" INDICATES FEW OR NO CLOUDS BELOW 12,000 FEET WITH NO
SIGNIFICANT WEATHER AND/OR OBSTRUCTIONS TO VISIBILITY.

* THESE STATIONS ARE NOT UNDER NWS QUALITY CONTROL. THEY ALSO MAY NOT
  REPORT WEATHER SUCH AS PRECIPITATION OR FOG.

INZ001>027-221400-
NORTHERN INDIANA

CITY           SKY/WX    TMP DP  RH WIND       PRES   REMARKS
GARY*          LGT RAIN  73  70  88 SW14      29.82R
VALPARAISO     LGT RAIN  73  71  93 SW18      29.83S
MICHIGAN CITY* DRIZZLE   72  72 100 CALM      29.85R
LAPORTE*       DRIZZLE   71  70  95 NW3       29.85R
KNOX*          CLOUDY    72  70  94 SW14G20   29.83S
SOUTH BEND     CLOUDY    72  71  97 CALM      29.85R
ELKHART*       LGT RAIN  73  70  88 CALM      29.83S
GOSHEN         LGT RAIN  74  69  85 CALM      29.84S
MONTICELLO*    CLOUDY    72  71  95 SW6       29.88R
LOGANSPORT*    CLOUDY    72  72 100 W5        29.89R
ROCHESTER*     LGT RAIN  73  73 100 SW7       29.86R
WARSAW*        RAIN      72  70  94 SW8G16    29.84R
AUBURN*        CLOUDY    72  70  94 NE6       29.86R
FORT WAYNE     TSTM      72  69  90 S14       29.84F
HUNTINGTON*    TSTM      71  69  95 SW7       29.85F
PERU/GRISSOM   CLOUDY    73  73 100 W6        29.87R
MARION*        CLOUDY    73  72  94 N6        29.90R

$$
INZ028>050-221400-
CENTRAL INDIANA

CITY           SKY/WX    TMP DP  RH WIND       PRES   REMARKS
LAFAYETTE      CLOUDY    73  72  96 NW5       29.89R
KOKOMO*        CLOUDY    74  72  93 NW9       29.90R
MUNCIE*        CLOUDY    76  72  87 SW6       29.88R
INDIANAPOLIS   PTSUNNY   76  70  82 S7        29.89R

$$
MIZ043>046-050>051-056>058-064>065-071>073-077>080-221400-
SOUTHWEST LOWER MICHIGAN

CITY           SKY/WX    TMP DP  RH WIND       PRES   REMARKS
BATTLE CREEK   CLOUDY    74  72  93 S12       29.85R
BENTON HARBOR  CLOUDY    74  70  87 S5        29.82S
COLDWATER*     CLOUDY    71  71 100 S5        29.85R
HILLSDALE*     CLOUDY    70  68  94 SE3       29.87R
HOLLAND        PTSUNNY   73  70  90 S6        29.82S
GRAND RAPIDS   CLOUDY    71  70  96 CALM      29.82R
KALAMAZOO      CLOUDY    74  69  85 S8        29.84S
STURGIS*       CLOUDY    71  69  94 CALM      29.86R
THREE RIVERS*  DRIZZLE   72  71  98 S3        29.85F

$$
OHZ001>008-015>018-024>025-221400-
NORTHWEST OHIO

CITY           SKY/WX    TMP DP  RH WIND       PRES   REMARKS
WAUSEON*       PTSUNNY   73  72  94 S5        29.86R
DEFIANCE       CLOUDY   N/A N/A N/A S3        29.86R
FINDLAY        CLOUDY    73  69  87 S9        29.85F
TOLEDO EXPRESS CLOUDY    72  72 100 SE3       29.84R
TOLEDO METCALF CLOUDY    74  72  93 S7        29.85S
LIMA           PTSUNNY   72  71  97 S6        29.86F

$$
AND FOR LAKE MICHIGAN COASTAL AND OPEN LAKE BUOY OBSERVATIONS

STATION/POSITION TEMP    WIND        PRES    VSBY  WAVE
                 AIR SEA DIR/SP/G                  HT/PER
                 (F)     (DEG/KT/KT) (MB)    (MI)  (FT/S)
CALUMET HARBOR    72     190/ 10/ 18 1007.3F
MICHIGAN CITY     73     260/ 14/ 16   N/A
BURNS HARBOR      73     220/ 13/ 20 1009.8R
SAINT JOSEPH      73      CALM  /  4 1010.2
SOUTH LAKE BUOY   71 70  320/  6/  6 1008.5R         2/ 5
4 MI NW BRIDGMAN  75 74  200/ 10/ 14 1009.1          4/ 5
MICHIGAN CITY     74 74  260/ 10/ 16   N/A           3

$$
&&



USA.gov is the U.S. government's official web portal to all federal, state and local government web resources and services.